Location: Lincolnton
(35.4660°N, 81.2500°W)
Time: 04:15:24
(UTC-04:00)

Hubble Space Telescope - Visible Passes

Search period start: 29 April 2016 00:00
Search period end: 09 May 2016 00:00
Orbit: 539 x 543 km, 28.5° (Epoch: 27 April)

Date Brightness Start Highest point End Pass type
(mag) Time Alt. Az. Time Alt. Az. Time Alt. Az.
29 Apr 2.5 05:36:19 13° SSW 05:38:49 20° SSE 05:41:55 10° ESE visible
30 Apr 2.3 05:27:07 16° SSW 05:29:07 23° SSE 05:32:26 10° ESE visible
01 May 2.1 05:17:54 20° SSW 05:19:26 26° S 05:22:53 10° ESE visible
02 May 1.9 05:08:42 25° SSW 05:09:45 28° S 05:13:18 10° ESE visible
03 May 1.8 04:59:30 28° S 05:00:05 29° S 05:03:42 10° ESE visible
04 May 1.7 04:50:21 30° S 04:50:24 30° S 04:54:03 10° ESE visible
05 May 1.9 04:41:15 30° SSE 04:41:15 30° SSE 04:44:23 10° ESE visible
06 May 2.2 04:32:14 25° SSE 04:32:14 25° SSE 04:34:41 10° ESE visible
07 May 2.6 04:23:19 20° SE 04:23:19 20° SE 04:24:58 10° SE visible
08 May 3.1 04:14:33 13° SE 04:14:33 13° SE 04:15:12 10° SE visible
08 May 2.7 05:50:15 10° SW 05:52:22 14° SSW 05:54:28 10° S visible
